EW6129 Weather Reports


time (UTC)temp
C
wind
direction
speed
KPH
gust
KPH
rain 1hr
cm
rain 24hr
cm
rain mn
cm
humidity
%
barometer
mb
20260506232703 7 8 1.6 6.4 0.00 0.00 0.00 82 1012.9
20260506232016 7 10 1.6 4.8 0.00 0.00 0.00 82 1012.9
20260506230903 7 19 1.6 8.0 0.00 0.00 0.00 82 1012.8
20260506230003 7 13 1.6 8.0 0.00 0.00 0.00 81 1012.7
20260506225617 7 9 1.6 8.0 0.00 0.00 0.00 81 1012.7
20260506224503 7 5 1.6 8.0 0.00 0.00 0.00 81 1012.6
20260506223817 7 8 1.6 6.4 0.00 0.00 0.00 81 1012.5
20260506222703 7 4 3.2 8.0 0.00 0.00 0.00 81 1012.6
20260506221803 7 14 1.6 8.0 0.00 0.00 0.00 80 1012.6
20260506221117 7 18 1.6 6.4 0.00 0.00 0.00 80 1012.6
20260506220005 7 16 1.6 4.8 0.00 0.00 0.00 81 1012.7
20260506215403 7 15 0.0 3.2 0.00 0.00 0.00 81 1012.6
20260506214503 7 14 1.6 6.4 0.00 0.00 0.00 81 1012.6
20260506213817 7 15 1.6 8.0 0.00 0.00 0.00 80 1012.6
20260506212703 7 18 1.6 6.4 0.00 0.00 0.00 81 1012.6
20260506211803 7 22 1.6 6.4 0.00 0.00 0.00 80 1012.5
20260506210903 7 23 1.6 6.4 0.00 0.00 0.00 80 1012.5
20260506210003 8 21 1.6 9.7 0.00 0.00 0.00 80 1012.3
20260506205403 8 22 1.6 6.4 0.00 0.00 0.00 80 1012.3
20260506204503 8 19 3.2 11.3 0.00 0.00 0.00 79 1012.4
20260506203603 8 12 1.6 9.7 0.00 0.00 0.00 79 1012.3
20260506202703 8 18 3.2 8.0 0.00 0.00 0.00 79 1012.3
20260506201803 8 12 4.8 16.1 0.00 0.00 0.00 79 1012.1
20260506200903 8 14 3.2 14.5 0.00 0.00 0.00 79 1012.0
20260506200003 8 21 4.8 12.9 0.00 0.00 0.00 79 1011.8
20260506195403 8 24 4.8 9.7 0.00 0.00 0.00 79 1011.9
20260506194503 8 20 3.2 11.3 0.00 0.00 0.00 79 1011.8
20260506193603 9 12 3.2 12.9 0.00 0.00 0.00 78 1011.8
20260506192918 9 15 4.8 12.9 0.00 0.00 0.00 77 1011.8
20260506192017 9 15 4.8 14.5 0.00 0.00 0.00 76 1011.7
20260506190903 10 27 3.2 12.9 0.00 0.00 0.00 76 1011.6
20260506190003 10 19 4.8 12.9 0.00 0.00 0.00 75 1011.5
20260506185403 10 20 6.4 12.9 0.00 0.00 0.00 75 1011.5
20260506184503 10 28 6.4 14.5 0.00 0.00 0.00 74 1011.3
20260506183603 10 18 4.8 12.9 0.00 0.00 0.00 74 1011.3
20260506182703 10 20 8.0 20.9 0.00 0.00 0.00 73 1011.3
20260506181803 11 21 8.0 19.3 0.00 0.00 0.00 72 1011.1
20260506180903 11 20 6.4 19.3 0.00 0.00 0.00 70 1011.0
20260506180004 11 29 9.7 22.5 0.00 0.00 0.00 69 1010.9
20260506175403 11 23 8.0 22.5 0.00 0.00 0.00 66 1010.8
20260506174503 12 26 6.4 22.5 0.00 0.00 0.00 64 1010.8
20260506173603 12 24 9.7 27.4 0.00 0.00 0.00 61 1010.7
20260506172703 12 27 9.7 24.1 0.00 0.00 0.00 64 1010.6
20260506172016 12 25 9.7 24.1 0.00 0.00 0.00 61 1010.5
20260506170903 12 26 8.0 20.9 0.00 0.00 0.00 60 1010.4
20260506170003 13 23 9.7 22.5 0.00 0.00 0.00 58 1010.3
20260506165403 13 16 9.7 22.5 0.00 0.00 0.00 56 1010.4
20260506164718 14 24 9.7 24.1 0.00 0.00 0.00 54 1010.3
20260506163603 13 26 11.3 27.4 0.00 0.00 0.00 55 1010.3
20260506162703 13 26 9.7 27.4 0.00 0.00 0.00 55 1010.4
20260506161803 13 20 8.0 20.9 0.00 0.00 0.00 57 1010.4
20260506161117 13 30 9.7 24.1 0.00 0.00 0.00 56 1010.4
20260506160003 13 25 9.7 22.5 0.00 0.00 0.00 56 1010.3
20260506155403 13 35 9.7 29.0 0.00 0.00 0.00 56 1010.3
20260506154503 13 23 12.9 25.7 0.00 0.00 0.00 61 1010.4
20260506153603 13 17 9.7 22.5 0.00 0.00 0.00 62 1010.4
20260506152703 12 23 9.7 30.6 0.00 0.00 0.00 62 1010.3
20260506151803 13 28 8.0 24.1 0.00 0.00 0.00 62 1010.3
20260506150903 13 33 9.7 25.7 0.00 0.00 0.00 59 1010.2
20260506150003 13 33 9.7 29.0 0.00 0.00 0.00 58 1010.1
20260506145403 13 23 11.3 30.6 0.00 0.00 0.00 57 1009.9
20260506144503 14 17 11.3 30.6 0.00 0.00 0.00 57 1010.1
20260506143603 14 28 9.7 29.0 0.00 0.00 0.00 57 1009.9
20260506142918 14 26 11.3 29.0 0.00 0.00 0.00 60 1009.9
20260506141803 14 28 11.3 25.7 0.00 0.00 0.00 61 1009.8
20260506140903 14 29 11.3 32.2 0.00 0.00 0.00 61 1009.8
20260506140003 14 35 12.9 32.2 0.00 0.00 0.00 60 1010.0
20260506135403 13 32 12.9 30.6 0.00 0.00 0.00 59 1009.8
20260506134503 13 23 14.5 32.2 0.00 0.00 0.00 64 1009.8
20260506133603 13 25 14.5 32.2 0.00 0.00 0.00 64 1009.9
20260506132703 13 24 14.5 27.4 0.00 0.00 0.00 65 1009.7
20260506131803 14 22 11.3 25.7 0.00 0.00 0.00 65 1009.8
20260506130903 14 16 11.3 27.4 0.00 0.00 0.00 65 1009.7
20260506130003 14 25 11.3 25.7 0.00 0.00 0.00 64 1009.7
20260506125403 14 23 11.3 25.7 0.00 0.00 0.00 62 1009.7
20260506124503 14 32 12.9 29.0 0.00 0.00 0.00 63 1009.6
20260506123603 14 25 12.9 25.7 0.00 0.00 0.00 60 1009.5
20260506122703 14 29 11.3 27.4 0.00 0.00 0.00 61 1009.5
20260506121803 14 29 11.3 27.4 0.00 0.00 0.00 60 1009.6
20260506120903 14 29 11.3 27.4 0.00 0.00 0.00 61 1009.4
20260506120003 14 28 9.7 25.7 0.00 0.00 0.00 65 1009.5
20260506115403 13 23 12.9 27.4 0.00 0.00 0.00 63 1009.5
20260506114503 14 22 11.3 25.7 0.00 0.00 0.00 61 1009.3
20260506113817 14 25 11.3 29.0 0.00 0.00 0.00 60 1009.4
20260506112917 14 27 9.7 29.0 0.00 0.00 0.00 60 1009.6
20260506111803 14 22 8.0 27.4 0.00 0.00 0.00 59 1009.6
20260506110903 15 35 9.7 30.6 0.00 0.00 0.00 59 1009.5
20260506110003 15 59 8.0 29.0 0.00 0.00 0.00 58 1009.4
20260506105403 15 67 9.7 29.0 0.00 0.00 0.00 56 1009.4
20260506104503 15 59 11.3 27.4 0.00 0.00 0.00 57 1009.6
20260506103603 15 42 9.7 25.7 0.00 0.00 0.00 61 1009.7
20260506102703 15 50 9.7 30.6 0.00 0.00 0.00 57 1009.5
20260506101803 14 48 11.3 32.2 0.00 0.00 0.00 58 1009.4
20260506100903 14 49 11.3 27.4 0.00 0.00 0.00 63 1009.4
20260506100003 13 35 11.3 30.6 0.00 0.00 0.00 64 1009.3
20260506095403 13 28 9.7 25.7 0.00 0.00 0.00 65 1009.3
20260506094503 13 38 9.7 24.1 0.00 0.00 0.00 67 1009.2
20260506093603 13 37 11.3 27.4 0.00 0.00 0.00 67 1009.3
20260506092703 12 39 11.3 32.2 0.00 0.00 0.00 66 1009.1
20260506091803 13 38 11.3 27.4 0.00 0.00 0.00 66 1009.1
20260506090903 13 53 9.7 24.1 0.00 0.00 0.00 65 1009.1
20260506090003 13 33 9.7 22.5 0.00 0.00 0.00 64 1009.1
20260506085403 13 30 9.7 24.1 0.00 0.00 0.00 68 1009.1
20260506084503 13 41 8.0 24.1 0.00 0.00 0.00 68 1009.2
20260506083603 12 32 11.3 24.1 0.00 0.00 0.00 71 1009.0
20260506082703 12 36 11.3 29.0 0.00 0.00 0.00 73 1009.0
20260506081803 12 41 8.0 24.1 0.00 0.00 0.00 72 1009.1
20260506080903 12 31 8.0 24.1 0.00 0.00 0.00 72 1009.0
20260506072703 12 37 8.0 24.1 0.00 0.00 0.00 75 1008.7
20260506071803 12 29 11.3 27.4 0.00 0.00 0.00 78 1008.7
20260506070903 12 31 8.0 27.4 0.00 0.00 0.00 77 1008.6
20260506061803 10 35 6.4 17.7 0.00 0.00 0.00 84 1008.6
20260506060903 10 32 6.4 17.7 0.00 0.00 0.00 85 1008.5
20260506060217 10 26 6.4 17.7 0.00 0.00 0.00 86 1008.5
20260506050903 8 30 3.2 9.7 0.00 0.00 0.00 90 1008.6
20260506044503 8 31 1.6 8.0 0.00 0.00 0.00 91 1008.5
20260506043603 8 28 1.6 8.0 0.00 0.00 0.00 91 1008.5
20260506042918 8 17 1.6 6.4 0.00 0.00 0.00 91 1008.5
20260506042017 8 16 1.6 4.8 0.00 0.00 0.00 91 1008.5
20260506040903 8 10 1.6 4.8 0.00 0.00 0.00 90 1008.5
20260506040003 8 8 1.6 8.0 0.00 0.00 0.00 90 1008.5
20260506035403 8 358 1.6 4.8 0.00 0.00 0.00 90 1008.5
20260506034717 8 4 1.6 6.4 0.00 0.00 0.00 90 1008.6
20260506033603 8 15 1.6 6.4 0.00 0.00 0.00 89 1008.6
20260506032703 8 16 3.2 8.0 0.00 0.00 0.00 89 1008.7
20260506031803 8 23 3.2 9.7 0.00 0.00 0.00 88 1008.8
20260506030903 8 16 3.2 8.0 0.00 0.00 0.00 88 1008.8
20260506030003 8 19 1.6 6.4 0.00 0.00 0.00 87 1008.9
20260506025403 8 19 3.2 8.0 0.00 0.00 0.00 87 1008.9
20260506024503 8 20 1.6 8.0 0.00 0.00 0.00 86 1009.1
20260506023603 8 30 1.6 8.0 0.00 0.00 0.00 85 1009.1
20260506022703 8 33 3.2 9.7 0.00 0.00 0.00 85 1009.1
20260506021803 8 29 3.2 9.7 0.00 0.00 0.00 85 1009.2
20260506020903 8 31 3.2 6.4 0.00 0.00 0.00 85 1009.2
20260506020003 8 21 4.8 12.9 0.00 0.00 0.00 84 1009.2
20260506015617 9 21 4.8 12.9 0.00 0.00 0.00 84 1009.1
20260506014503 9 18 4.8 16.1 0.00 0.00 0.00 84 1009.2
20260506013603 9 17 4.8 11.3 0.00 0.00 0.00 83 1009.2
20260506012703 9 16 4.8 14.5 0.00 0.00 0.00 82 1009.3
20260506011803 9 25 4.8 17.7 0.00 0.00 0.00 83 1009.4
20260506010903 9 28 4.8 16.1 0.00 0.00 0.00 83 1009.4
20260506010003 9 29 6.4 19.3 0.00 0.00 0.00 83 1009.5
20260506005403 9 30 6.4 19.3 0.00 0.00 0.00 83 1009.5
20260506004718 9 27 4.8 16.1 0.00 0.00 0.00 84 1009.6
20260506003603 9 24 4.8 12.9 0.00 0.00 0.00 84 1009.6
20260506002703 9 20 4.8 11.3 0.00 0.00 0.00 84 1009.6
20260506002018 9 20 4.8 14.5 0.00 0.00 0.00 84 1009.7
20260506001117 9 21 4.8 14.5 0.00 0.00 0.00 84 1009.7
20260506000003 9 19 3.2 9.7 0.00 0.00 0.00 85 1009.8
20260505235403 9 19 3.2 16.1 0.00 0.00 0.00 85 1009.8
20260505234503 9 23 4.8 16.1 0.00 0.00 0.00 84 1009.9
20260505233817 10 28 4.8 17.7 0.00 0.00 0.00 84 1009.9